Regional Weather Roundup
Issued by NWS

Home | Current Version | Previous Version | Text Only | Print | Product List | Glossary Off
Versions: 1 2 3 4 5 6 7 8 9 10 11 12 13 14 15 16 17 18 19 20 21 22 23 24 25 26 27 28 29 30 31 32 33 34 35 36 37 38 39 40 41 42 43 44 45 46 47 48 49 50

238
ASUS43 KMKX 221900
RWRWI

WISCONSIN REGIONAL WEATHER ROUNDUP
NATIONAL WEATHER SERVICE MILWAUKEE/SULLIVAN WI
200 PM CDT SAT JUL 22 2017

NOTE: "FAIR" INDICATES FEW OR NO CLOUDS BELOW 12,000 FEET WITH NO
SIGNIFICANT WEATHER AND/OR OBSTRUCTIONS TO VISIBILITY.

WIZ001-002-006>008-014>016-023>028-222000-
NORTHWEST WISCONSIN

CITY           SKY/WX    TMP DP  RH WIND       PRES   REMARKS
SUPERIOR ARPT  NOT AVBL
ASHLAND        PTSUNNY   75  66  73 VRB5      29.82S
HAYWARD        MOSUNNY   80  67  64 NW3       29.82F HX  82
SIREN          SUNNY     83  62  48 W8        29.82F HX  84
CUMBERLAND     SUNNY     81  63  54 W5        29.83F HX  82
RICE LAKE      SUNNY     82  67  58 W7        29.84S HX  85
CHETEK         MOSUNNY   84  68  58 W5        29.82F HX  87
LADYSMITH      SUNNY     83  68  59 SW10      29.84S HX  86
EAU CLAIRE     NOT AVBL
MENOMONIE      SUNNY     85  68  56 W3        29.82S HX  89
NEW RICHMOND   MOSUNNY   85  66  52 NW9       29.82F HX  87
OSCEOLA        SUNNY     84  65  53 NW6       29.84F HX  86
$$

WIZ003>005-009-010-017-018-222000-
NORTH CENTRAL WISCONSIN

CITY           SKY/WX    TMP DP  RH WIND       PRES   REMARKS
MANITOWISH WTR CLOUDY    77  66  69 W5        29.82F
ARBOR VITAE    CLOUDY    80  67  63 W5        29.82F HX  83
WOODRUFF       CLOUDY    80  67  63 W5        29.82F HX  83
RHINELANDER    MOSUNNY   84  65  52 NW8       29.83F HX  86
EAGLE RIVER    MOSUNNY   79  61  55 W6        29.83R HX  80
LAND O LAKES   MOSUNNY   80  61  53 CALM      29.84S HX  81
PHILLIPS       MOSUNNY   82  69  63 SW9       29.81F HX  85
TOMAHAWK         N/A     82  63  53 NW7       29.82F HX  83
MEDFORD        MOSUNNY   80  67  65 W6        29.83F HX  82
MERRILL        PTSUNNY   83  67  57 W5        29.82F HX  85
$$

WIZ029-030-035-036-043>047-222000-
CENTRAL WISCONSIN

CITY           SKY/WX    TMP DP  RH WIND       PRES   REMARKS
WAUSAU         MOSUNNY   82  66  58 VRB7      29.80F HX  84
MOSINEE        PTSUNNY   82  66  57 W7        29.84F HX  85
MARSHFIELD     SUNNY     81  66  60 W5        29.83F HX  83
STEVENS POINT  MOSUNNY   80  65  60 W6        29.83F HX  82
WAUPACA        MOSUNNY   83  67  58 CALM      29.83S HX  85
WAUTOMA        MOSUNNY   80  69  69 CALM      29.82F HX  83
WISC RAPIDS    MOSUNNY   81  70  69 CALM      29.84F HX  84
CAMP DOUGLAS   PTSUNNY   77  70  78 CALM      29.83F
$$

WIZ011>013-019>022-031-037>040-048>050-222000-
NORTHEAST WISCONSIN

CITY           SKY/WX    TMP DP  RH WIND       PRES   REMARKS
ANTIGO         MOSUNNY   80  65  61 CALM      29.83F HX  81
SHAWANO        MOSUNNY   82  66  59 SW5       29.82F HX  84
OCONTO         CLOUDY    76  64  65 CALM      29.81F
STURGEON BAY     N/A     77  65  66 S3        29.83S
GREEN BAY      PTSUNNY   81  71  71 W7        29.81S HX  85
MANITOWOC      NOT AVBL
APPLETON       PTSUNNY   79  64  61 VRB5      29.81F HX  81
CLINTONVILLE   MOSUNNY   79  64  61 CALM      29.83S HX  81
OSHKOSH        PTSUNNY   78  69  73 NE7       29.81F HX  80
$$

WIZ032>034-041-042-053>061-222000-
SOUTHWEST WISCONSIN

CITY           SKY/WX    TMP DP  RH WIND       PRES   REMARKS
LA CROSSE      PTSUNNY   81  71  71 VRB3      29.82F HX  85
SPARTA         PTSUNNY   77  69  75 CALM      29.84S
VIROQUA        CLOUDY    75  72  89 CALM      29.86F
BOSCOBEL       CLOUDY    81  72  74 CALM      29.83F HX  85
PRAIRIE DU CHI CLOUDY    78  71  77 N5        29.83S HX  81
PLATTEVILLE    CLOUDY    80  76  85 W6        29.86R HX  86
$$

WIZ056-057-062-063-064-067-068-222000-
SOUTH CENTRAL WISCONSIN

CITY           SKY/WX    TMP DP  RH WIND       PRES   REMARKS
REEDSBURG      CLOUDY    75  71  89 CALM      29.84S
BARABOO/DELLS  CLOUDY    77  68  72 NW5       29.84F
LONE ROCK      PTSUNNY   80  70  71 CALM      29.83F HX  83
MINERAL POINT  CLOUDY    79  75  89 N3        29.86S HX  82
MADISON        PTSUNNY   79  71  76 N6        29.83F HX  82
MIDDLETON      CLOUDY    79  74  86 NW6       29.85S HX  82
WATERTOWN      CLOUDY    75  72  92 CALM      29.84R
MONROE         CLOUDY    77  70  78 N3        29.85S
JANESVILLE     CLOUDY    81  72  74 N6        29.84R HX  84
$$

WIZ051-052-058>065-066-070>072-222000-
SOUTHEAST WISCONSIN

CITY           SKY/WX    TMP DP  RH WIND       PRES   REMARKS
MILWAUKEE      CLOUDY    74  70  87 NE6       29.83R
WAUKESHA       CLOUDY    75  70  83 W6        29.84S
MILWAUKEE/TIMM CLOUDY    75  66  73 E5        29.83S
RACINE         CLOUDY    74  70  87 SE8       29.84S
KENOSHA        CLOUDY    80  71  74 W8        29.83S HX  84
FOND DU LAC    PTSUNNY   78  67  68 CALM      29.82F HX  80
SHEBOYGAN      CLOUDY    78  71  79 E5        29.81F HX  80
WEST BEND      PTSUNNY   77  68  73 NW5       29.83S
JUNEAU         CLOUDY    76  70  82 NW3       29.84F
$$

LSZ147-162-222000-
LAKE SUPERIOR

STATION/POSITION TIME  TEMP    WIND        PRES    WAVE
                       AIR SEA DIR/SP/G            HT/PER
                 (UTC) (F)     (DEG/KT/KT) (MB)    (FT/S)
W MID LAKE BUOY  1750   49 47   30/ 12/ 16 1010.1F   2/ 5
DEVILS ISLAND    1800   55      30/  5/  6 1010.5R
SAXON HARBOR     1840   68      CALM  /  2 1009.8S
$$

LMZ867-665-643>646-222000-
LAKE MICHIGAN

STATION/POSITION TIME  TEMP    WIND        PRES    WAVE
                       AIR SEA DIR/SP/G            HT/PER
                 (UTC) (F)     (DEG/KT/KT) (MB)    (FT/S)
CHAMBERS ISLAND  1840   77     330/  2/  4 1009.5S
S GREEN BAY BUOY 1830   73 75   50/  4/  6 1009.8S
N MID LAKE BUOY  1750   69 68   60/  4/  4 1010.3F   1
NORTHPORT PIER   1840   75     130/  5/  5 1009.8S
KEWAUNEE LAKESHO 1830   74      30/  3/  5 1009.5R
SHEBOYGAN LAKESH 1800   68      80/  4/  5 1009.5F
PORT WASHINGTON  1840   72      70/  5/  7 1010.5F
ATWATER BUOY     1709   69 68   50/ 10/ 12 1010.3F
MILWAUKEE LAKESH 1830   68      50/  7/  8   N/A
S MID LAKE BUOY  1750   71 70  330/  6/  8 1009.8R   2/ 5
KENOSHA   LAKESH 1800   78     340/ 10/ 13 1009.8
$$

TC  - TEMPERATURE IN CELSIUS
VSB - VISIBILITY IN STATUTE MILES
WCI - WIND CHILL INDEX
HX  - HEAT INDEX





USA.gov is the U.S. government's official web portal to all federal, state and local government web resources and services.